STARLINK-32872 (63019 NORAD) Tracking and Keplerian Element Data

This shows tracking and keplerian element data for the satellite.

Feedback or suggestion? Click here.




ElementValue
Catalog63019
NameSTARLINK-32872
Epoch Orbit4836
Epoch Day353.57703545
Epoch Year2025
RAAN68.8495
Inclination43.0021
Eccentricity0.0001877
Argument of Perigee270.6277
Mean Anonmoly89.4359
Mean Motion15.27581903
Decay Rate0.0001745
L11 63019U 25032Q 25353.57703545 .00017450 00000+0 64210-3 0 9997
L22 63019 43.0021 68.8495 0001877 270.6277 89.4359 15.27581903 48365



Live tracking and technical data element details for STARLINK-32872 (NORAD 63019). STARLINK-32872 can be tracked NOW for your location showing map with azimuth and elevation plus other details from your city location.







IsCatalogInMostPopularTable: catalog: 63019, numindb: 1
Update: records affected: 1



GetName: 63019 STARLINK-32872

Hit Count: updated at: Sat, 07 Feb 2026 07:34:43 GMT